Flag for Australia Weather past 2 weeks in Melbourne, Victoria, Australia

Now
48 °F

Clear.


Feels Like: 45 °F
Forecast: 46 / 60 °F
Wind: 8 mph from North

Location: Melbourne Airport

Current Time: May 25, 2015 at 5:26:38 AM

Latest Report: May 25, 2015 at 4:30 AM


Visibility: 10 mi

Pressure: 30.39 "Hg

Humidity: 76%

Dew point: 41 °F

Location of MelbourneLocation

Historic Weather in Melbourne — Graph

°F

Melbourne temperature yesterday

Maximum temperature yesterday: 63 °F (at 1:00 PM)
Minimum temperature yesterday: 37 °F (at 9:00 AM)
Average temperature yesterday: 49 °F

Past Weeks' High & Low Weather Summary

 TemperatureHumidityPressure
High68 °F (May 17, 2:30 PM)100% (May 14, 9:30 PM)30.63 "Hg (May 14, 9:30 PM)
Low37 °F (May 24, 9:00 AM)42% (May 12, 1:00 PM)29.59 "Hg (May 10, 6:00 AM)
Average53 °F77%30.22 "Hg
* Reported May 10 4:00 AM — May 25 4:00 AM, Melbourne, Weather by CustomWeather, © 2015

Note: Actual official high and low records may vary slightly from our data, if they occured in-between our weather recording intervals... More about our weather records

Advertising

Melbourne weather history for previous 24 hours

 ConditionsComfort  
Time TempWeatherWind HumidityBarometerVisibility
4:00 AM
Mon, May 25
46 °FClear.7 mph82%30.39 "Hg10 mi
3:30 AM46 °FClear.6 mph82%30.39 "Hg10 mi
3:00 AM48 °FClear.10 mph76%30.42 "Hg10 mi
2:30 AM48 °FClear.10 mph76%30.42 "Hg10 mi
2:00 AM48 °FClear.9 mph76%30.42 "Hg10 mi
1:30 AM46 °FClear.8 mph82%30.42 "Hg10 mi
1:00 AM45 °FClear.8 mph87%30.42 "Hg10 mi
12:30 AM45 °FClear.8 mph87%30.42 "Hg10 mi
12:00 AM46 °FClear.9 mph82%30.45 "Hg10 mi
11:30 PM
Sun, May 24
46 °FClear.10 mph82%30.42 "Hg10 mi
11:00 PM45 °FClear.9 mph81%30.45 "Hg10 mi
10:30 PM45 °FClear.9 mph87%30.45 "Hg10 mi
10:00 PM48 °FClear.9 mph76%30.45 "Hg10 mi
9:30 PM46 °FPassing clouds.6 mph82%30.45 "HgN/A
9:00 PM48 °FClear.8 mph76%30.42 "Hg10 mi
8:30 PM48 °FClear.10 mph76%30.45 "Hg10 mi
8:00 PM50 °FClear.12 mph76%30.42 "Hg10 mi
7:30 PM50 °FClear.10 mph76%30.42 "Hg10 mi
7:00 PM52 °FClear.12 mph72%30.42 "Hg10 mi
6:30 PM50 °FClear.10 mph76%30.42 "Hg10 mi
6:00 PM54 °FClear.10 mph67%30.42 "Hg10 mi
5:30 PM54 °FClear.10 mph67%30.39 "Hg10 mi
5:00 PM55 °FClear.10 mph63%30.39 "Hg10 mi
4:30 PM57 °FClear.10 mph59%30.39 "Hg10 mi
4:00 PM59 °FSunny.12 mph59%30.39 "Hg10 mi
3:30 PM59 °FSunny.10 mph55%30.39 "Hg10 mi
3:00 PM59 °FSunny.13 mph55%30.39 "Hg10 mi
2:30 PM61 °FSunny.12 mph52%30.39 "Hg10 mi
2:00 PM63 °FSunny.9 mph49%30.39 "Hg10 mi
1:30 PM61 °FSunny.8 mph48%30.39 "Hg10 mi
1:00 PM63 °FSunny.8 mph49%30.39 "Hg10 mi
12:30 PM61 °FSunny.8 mph48%30.42 "Hg10 mi
12:00 PM59 °FSunny.8 mph55%30.42 "Hg10 mi
11:30 AM55 °FSunny.6 mph63%30.45 "Hg10 mi
11:00 AM48 °FSunny.7 mph76%30.45 "Hg10 mi
10:30 AM46 °FPartly sunny.7 mph76%30.48 "HgN/A
10:00 AM43 °FPartly sunny.5 mph87%30.48 "HgN/A
9:30 AM39 °FFog.6 mph100%30.48 "Hg2 mi
9:00 AM37 °FFog.8 mph100%30.48 "Hg1 mi
8:00 AM41 °FFog.5 mph93%30.45 "Hg2 mi
7:30 AM41 °FFog.6 mph100%30.45 "Hg3 mi
7:00 AM41 °FLow clouds.6 mph100%30.42 "Hg4 mi
6:30 AM43 °FLow clouds.7 mph93%30.42 "Hg4 mi
6:00 AM43 °FLow clouds.7 mph93%30.42 "Hg6 mi
5:30 AM43 °FPassing clouds.6 mph93%30.42 "HgN/A
5:00 AM43 °FPassing clouds.7 mph93%30.42 "HgN/A
Weather by CustomWeather, © 2015

See weather overviewHow to use our weather pages